Time,TemperatureF,DewpointF,PressureIn,WindDirection,WindDirectionDegrees,WindSpeedMPH,WindSpeedGustMPH,Humidity,HourlyPrecipIn,Conditions,Clouds,dailyrainin,SoftwareType,DateUTC
2013-02-26 00:01:00,48.0,45.0,29.56,South,191,12.0,-999.0,90,-99.99,,,0.12,,2013-02-26 06:01:00,
2013-02-26 00:11:00,48.0,45.0,29.56,South,191,12.0,-999.0,90,-99.99,,,0.12,,2013-02-26 06:11:00,
2013-02-26 00:21:00,48.0,45.0,29.57,ESE,105,11.0,-999.0,90,-99.99,,,0.12,,2013-02-26 06:21:00,
2013-02-26 00:32:00,48.0,45.0,29.53,SE,129,13.0,-999.0,89,-99.99,,,0.12,,2013-02-26 06:32:00,
2013-02-26 00:41:00,48.0,45.0,29.53,SE,129,13.0,-999.0,89,-99.99,,,0.12,,2013-02-26 06:41:00,
2013-02-26 00:52:00,48.0,45.0,29.57,East,98,10.0,-999.0,90,-99.99,,,0.12,,2013-02-26 06:52:00,
2013-02-26 01:01:00,48.0,46.0,29.54,ESE,111,9.0,-999.0,92,-99.99,,,0.14,,2013-02-26 07:01:00,
2013-02-26 01:11:00,48.0,46.0,29.54,ESE,111,9.0,-999.0,92,-99.99,,,0.14,,2013-02-26 07:11:00,
2013-02-26 01:22:00,47.0,45.0,29.51,SE,124,10.0,-999.0,93,-99.99,,,0.14,,2013-02-26 07:22:00,
2013-02-26 01:31:00,48.0,46.0,29.51,ENE,75,11.0,-999.0,93,-99.99,,,0.14,,2013-02-26 07:31:00,
2013-02-26 01:41:00,48.0,46.0,29.51,ENE,75,11.0,-999.0,93,-99.99,,,0.14,,2013-02-26 07:41:00,
2013-02-26 01:52:00,47.0,45.0,29.51,ESE,119,10.0,-999.0,93,-99.99,,,0.14,,2013-02-26 07:52:00,
2013-02-26 02:01:00,48.0,46.0,29.54,SE,145,7.0,-999.0,93,-99.99,,,0.15,,2013-02-26 08:01:00,
2013-02-26 02:11:00,47.0,45.0,29.54,East,94,7.0,-999.0,92,-99.99,,,0.15,,2013-02-26 08:11:00,
2013-02-26 02:21:00,47.0,45.0,29.54,East,94,7.0,-999.0,92,-99.99,,,0.15,,2013-02-26 08:21:00,
2013-02-26 02:31:00,47.0,45.0,29.53,ESE,112,7.0,-999.0,92,-99.99,,,0.15,,2013-02-26 08:31:00,
2013-02-26 02:42:00,47.0,45.0,29.53,ESE,112,7.0,-999.0,92,-99.99,,,0.15,,2013-02-26 08:42:00,
2013-02-26 02:52:00,47.0,45.0,29.52,South,177,12.0,-999.0,92,-99.99,,,0.15,,2013-02-26 08:52:00,
2013-02-26 03:01:00,47.0,45.0,29.49,East,81,9.0,-999.0,93,-99.99,,,0.15,,2013-02-26 09:01:00,
2013-02-26 03:11:00,47.0,45.0,29.49,East,81,9.0,-999.0,93,-99.99,,,0.15,,2013-02-26 09:11:00,
2013-02-26 03:21:00,47.0,45.0,29.49,South,178,11.0,-999.0,92,-99.99,,,0.16,,2013-02-26 09:21:00,
2013-02-26 03:31:00,47.0,45.0,29.49,SE,125,8.0,-999.0,92,-99.99,,,0.16,,2013-02-26 09:31:00,
2013-02-26 03:43:00,47.0,45.0,29.49,SE,125,8.0,-999.0,92,-99.99,,,0.16,,2013-02-26 09:43:00,
2013-02-26 03:51:00,47.0,45.0,29.51,SSE,166,5.0,-999.0,92,-99.99,,,0.16,,2013-02-26 09:51:00,
2013-02-26 04:01:00,47.0,45.0,29.53,SSW,192,4.0,-999.0,91,-99.99,,,0.16,,2013-02-26 10:01:00,
2013-02-26 04:11:00,47.0,45.0,29.53,SSW,192,4.0,-999.0,91,-99.99,,,0.16,,2013-02-26 10:11:00,
2013-02-26 04:21:00,47.0,45.0,29.52,ESE,106,5.0,-999.0,91,-99.99,,,0.16,,2013-02-26 10:21:00,
2013-02-26 04:31:00,47.0,44.0,29.51,SSE,147,8.0,-999.0,90,-99.99,,,0.16,,2013-02-26 10:31:00,
2013-02-26 04:41:00,47.0,44.0,29.51,SSE,147,8.0,-999.0,90,-99.99,,,0.16,,2013-02-26 10:41:00,
2013-02-26 04:52:00,47.0,44.0,29.49,ESE,120,10.0,-999.0,90,-99.99,,,0.16,,2013-02-26 10:52:00,
2013-02-26 05:01:00,47.0,44.0,29.48,SSW,195,11.0,-999.0,90,-99.99,,,0.16,,2013-02-26 11:01:00,
2013-02-26 05:12:00,47.0,44.0,29.48,SSW,195,11.0,-999.0,90,-99.99,,,0.16,,2013-02-26 11:12:00,
2013-02-26 05:21:00,47.0,44.0,29.48,ESE,121,10.0,-999.0,90,-99.99,,,0.16,,2013-02-26 11:21:00,
2013-02-26 05:32:00,47.0,44.0,29.48,SSW,193,8.0,-999.0,90,-99.99,,,0.16,,2013-02-26 11:32:00,
2013-02-26 05:42:00,47.0,44.0,29.48,SSW,193,8.0,-999.0,90,-99.99,,,0.16,,2013-02-26 11:42:00,
2013-02-26 05:52:00,47.0,44.0,29.48,ENE,78,5.0,-999.0,90,-99.99,,,0.16,,2013-02-26 11:52:00,
2013-02-26 06:01:00,47.0,44.0,29.48,SE,126,6.0,-999.0,90,-99.99,,,0.16,,2013-02-26 12:01:00,
2013-02-26 06:11:00,47.0,44.0,29.48,SE,126,6.0,-999.0,90,-99.99,,,0.16,,2013-02-26 12:11:00,
2013-02-26 06:22:00,47.0,44.0,29.48,SE,127,8.0,-999.0,90,-99.99,,,0.16,,2013-02-26 12:22:00,
2013-02-26 06:32:00,47.0,44.0,29.48,SE,133,7.0,-999.0,90,-99.99,,,0.16,,2013-02-26 12:32:00,
2013-02-26 06:42:00,47.0,44.0,29.48,SE,133,7.0,-999.0,90,-99.99,,,0.16,,2013-02-26 12:42:00,
2013-02-26 06:53:00,47.0,44.0,29.48,SSE,168,7.0,-999.0,90,-99.99,,,0.16,,2013-02-26 12:53:00,
2013-02-26 07:01:00,46.0,43.0,29.47,SE,131,5.0,-999.0,90,-99.99,,,0.16,,2013-02-26 13:01:00,
2013-02-26 07:11:00,46.0,43.0,29.47,SE,131,5.0,-999.0,90,-99.99,,,0.16,,2013-02-26 13:11:00,
2013-02-26 07:21:00,46.0,44.0,29.48,SSE,158,5.0,-999.0,91,-99.99,,,0.16,,2013-02-26 13:21:00,
2013-02-26 07:32:00,46.0,44.0,29.52,WSW,245,7.0,-999.0,93,-99.99,,,0.17,,2013-02-26 13:32:00,
2013-02-26 07:42:00,46.0,44.0,29.52,WSW,245,7.0,-999.0,93,-99.99,,,0.17,,2013-02-26 13:42:00,
2013-02-26 07:51:00,46.0,45.0,29.53,South,183,2.0,-999.0,95,-99.99,,,0.20,,2013-02-26 13:51:00,
2013-02-26 08:01:00,46.0,45.0,29.53,SE,129,2.0,-999.0,95,-99.99,,,0.20,,2013-02-26 14:01:00,
2013-02-26 08:11:00,46.0,45.0,29.53,SE,129,2.0,-999.0,95,-99.99,,,0.20,,2013-02-26 14:11:00,
2013-02-26 08:21:00,47.0,46.0,29.52,SE,127,2.0,-999.0,95,-99.99,,,0.20,,2013-02-26 14:21:00,
2013-02-26 08:32:00,47.0,46.0,29.52,ESE,121,2.0,-999.0,96,-99.99,,,0.20,,2013-02-26 14:32:00,
2013-02-26 08:42:00,47.0,46.0,29.52,ESE,121,2.0,-999.0,96,-99.99,,,0.20,,2013-02-26 14:42:00,
2013-02-26 08:52:00,47.0,46.0,29.52,ESE,123,2.0,-999.0,96,-99.99,,,0.20,,2013-02-26 14:52:00,
2013-02-26 09:02:00,47.0,46.0,29.52,ESE,102,1.0,-999.0,96,-99.99,,,0.21,,2013-02-26 15:02:00,
2013-02-26 09:11:00,47.0,46.0,29.52,ESE,102,1.0,-999.0,96,-99.99,,,0.21,,2013-02-26 15:11:00,
2013-02-26 09:21:00,47.0,46.0,29.52,ESE,123,2.0,-999.0,96,-99.99,,,0.21,,2013-02-26 15:21:00,
2013-02-26 09:32:00,47.0,46.0,29.52,ESE,123,2.0,-999.0,96,-99.99,,,0.21,,2013-02-26 15:32:00,
2013-02-26 09:42:00,47.0,46.0,29.52,ESE,123,2.0,-999.0,96,-99.99,,,0.21,,2013-02-26 15:42:00,
2013-02-26 09:52:00,47.0,46.0,29.54,South,181,4.0,-999.0,97,-99.99,,,0.22,,2013-02-26 15:52:00,
2013-02-26 10:01:00,47.0,45.0,29.55,SW,224,6.0,-999.0,93,-99.99,,,0.23,,2013-02-26 16:01:00,
2013-02-26 10:11:00,47.0,45.0,29.55,SW,224,6.0,-999.0,93,-99.99,,,0.23,,2013-02-26 16:11:00,
2013-02-26 10:22:00,46.0,44.0,29.56,SW,215,4.0,-999.0,93,-99.99,,,0.23,,2013-02-26 16:22:00,
2013-02-26 10:32:00,46.0,44.0,29.56,SSW,211,5.0,-999.0,91,-99.99,,,0.23,,2013-02-26 16:32:00,
2013-02-26 10:42:00,46.0,44.0,29.56,SSW,211,5.0,-999.0,91,-99.99,,,0.23,,2013-02-26 16:42:00,
2013-02-26 10:52:00,47.0,45.0,29.57,SSW,202,4.0,-999.0,91,-99.99,,,0.23,,2013-02-26 16:52:00,
2013-02-26 11:01:00,48.0,43.0,29.58,WSW,258,5.0,-999.0,83,-99.99,,,0.23,,2013-02-26 17:01:00,
2013-02-26 11:11:00,49.0,43.0,29.59,WSW,258,4.0,-999.0,81,-99.99,,,0.23,,2013-02-26 17:11:00,
2013-02-26 11:21:00,49.0,43.0,29.59,WSW,258,4.0,-999.0,81,-99.99,,,0.23,,2013-02-26 17:21:00,
2013-02-26 11:32:00,50.0,42.0,29.59,WSW,251,7.0,-999.0,74,-99.99,,,0.23,,2013-02-26 17:32:00,
2013-02-26 11:41:00,50.0,42.0,29.59,WSW,251,7.0,-999.0,74,-99.99,,,0.23,,2013-02-26 17:41:00,
2013-02-26 11:52:00,50.0,41.0,29.59,South,177,7.0,-999.0,71,-99.99,,,0.23,,2013-02-26 17:52:00,
2013-02-26 12:01:00,49.0,40.0,29.60,SW,229,7.0,-999.0,72,-99.99,,,0.23,,2013-02-26 18:01:00,
2013-02-26 12:12:00,49.0,40.0,29.60,SW,229,7.0,-999.0,72,-99.99,,,0.23,,2013-02-26 18:12:00,
2013-02-26 12:21:00,49.0,41.0,29.59,SSW,206,5.0,-999.0,73,-99.99,,,0.23,,2013-02-26 18:21:00,
2013-02-26 12:32:00,49.0,40.0,29.60,South,185,6.0,-999.0,72,-99.99,,,0.23,,2013-02-26 18:32:00,
2013-02-26 12:42:00,49.0,40.0,29.60,South,185,6.0,-999.0,72,-99.99,,,0.23,,2013-02-26 18:42:00,
2013-02-26 12:52:00,49.0,39.0,29.58,South,190,6.0,-999.0,69,-99.99,,,0.23,,2013-02-26 18:52:00,
2013-02-26 13:01:00,49.0,39.0,29.57,SW,226,6.0,-999.0,69,-99.99,,,0.23,,2013-02-26 19:01:00,
2013-02-26 13:11:00,49.0,39.0,29.57,SW,226,6.0,-999.0,69,-99.99,,,0.23,,2013-02-26 19:11:00,
2013-02-26 13:22:00,49.0,39.0,29.58,SSW,210,7.0,-999.0,69,-99.99,,,0.23,,2013-02-26 19:22:00,
2013-02-26 13:32:00,49.0,39.0,29.58,WSW,247,7.0,-999.0,67,-99.99,,,0.23,,2013-02-26 19:32:00,
2013-02-26 13:41:00,49.0,39.0,29.58,WSW,247,7.0,-999.0,67,-99.99,,,0.23,,2013-02-26 19:41:00,
2013-02-26 13:52:00,49.0,39.0,29.60,SW,214,8.0,-999.0,67,-99.99,,,0.23,,2013-02-26 19:52:00,
2013-02-26 14:01:00,49.0,38.0,29.60,SSW,212,7.0,-999.0,65,-99.99,,,0.23,,2013-02-26 20:01:00,
2013-02-26 14:11:00,49.0,38.0,29.60,SSW,212,7.0,-999.0,65,-99.99,,,0.23,,2013-02-26 20:11:00,
2013-02-26 14:21:00,48.0,38.0,29.60,SW,235,8.0,-999.0,68,-99.99,,,0.23,,2013-02-26 20:21:00,
2013-02-26 14:32:00,47.0,38.0,29.61,WSW,258,7.0,-999.0,70,-99.99,,,0.23,,2013-02-26 20:32:00,
2013-02-26 14:41:00,47.0,38.0,29.61,WSW,258,7.0,-999.0,70,-99.99,,,0.23,,2013-02-26 20:41:00,
2013-02-26 14:51:00,47.0,38.0,29.62,SW,214,8.0,-999.0,71,-99.99,,,0.23,,2013-02-26 20:51:00,
2013-02-26 15:01:00,47.0,38.0,29.62,SSW,193,7.0,-999.0,72,-99.99,,,0.23,,2013-02-26 21:01:00,
2013-02-26 15:11:00,47.0,38.0,29.62,SSW,193,7.0,-999.0,72,-99.99,,,0.23,,2013-02-26 21:11:00,
2013-02-26 15:21:00,47.0,39.0,29.63,SSW,205,5.0,-999.0,73,-99.99,,,0.23,,2013-02-26 21:21:00,
2013-02-26 15:31:00,47.0,38.0,29.63,SSW,208,5.0,-999.0,72,-99.99,,,0.23,,2013-02-26 21:31:00,
2013-02-26 15:41:00,47.0,38.0,29.63,SSW,208,5.0,-999.0,72,-99.99,,,0.23,,2013-02-26 21:41:00,
2013-02-26 15:51:00,47.0,38.0,29.64,SSE,159,6.0,-999.0,71,-99.99,,,0.23,,2013-02-26 21:51:00,
2013-02-26 16:01:00,46.0,38.0,29.65,SSW,206,8.0,-999.0,73,-99.99,,,0.23,,2013-02-26 22:01:00,
2013-02-26 16:11:00,46.0,38.0,29.65,SW,220,6.0,-999.0,73,-99.99,,,0.23,,2013-02-26 22:11:00,
2013-02-26 16:21:00,46.0,38.0,29.65,SW,220,6.0,-999.0,73,-99.99,,,0.23,,2013-02-26 22:21:00,
2013-02-26 16:31:00,46.0,39.0,29.67,WSW,240,8.0,-999.0,77,-99.99,,,0.23,,2013-02-26 22:31:00,
2013-02-26 16:41:00,46.0,39.0,29.67,WSW,240,8.0,-999.0,77,-99.99,,,0.23,,2013-02-26 22:41:00,
2013-02-26 16:51:00,44.0,39.0,29.67,South,188,5.0,-999.0,84,-99.99,,,0.23,,2013-02-26 22:51:00,
2013-02-26 17:01:00,44.0,39.0,29.67,SW,221,6.0,-999.0,84,-99.99,,,0.23,,2013-02-26 23:01:00,
2013-02-26 17:11:00,44.0,39.0,29.67,SW,221,6.0,-999.0,84,-99.99,,,0.23,,2013-02-26 23:11:00,
2013-02-26 17:21:00,44.0,39.0,29.68,WSW,247,6.0,-999.0,83,-99.99,,,0.23,,2013-02-26 23:21:00,
2013-02-26 17:31:00,44.0,39.0,29.68,SSW,206,6.0,-999.0,82,-99.99,,,0.23,,2013-02-26 23:31:00,
2013-02-26 17:41:00,44.0,39.0,29.68,SSW,206,6.0,-999.0,82,-99.99,,,0.23,,2013-02-26 23:41:00,
2013-02-26 17:52:00,44.0,39.0,29.70,South,174,5.0,-999.0,81,-99.99,,,0.23,,2013-02-26 23:52:00,
2013-02-26 18:01:00,44.0,38.0,29.70,South,185,6.0,-999.0,80,-99.99,,,0.23,,2013-02-27 00:01:00,
2013-02-26 18:11:00,44.0,38.0,29.70,South,185,6.0,-999.0,80,-99.99,,,0.23,,2013-02-27 00:11:00,
2013-02-26 18:21:00,43.0,40.0,29.71,SW,225,5.0,-999.0,89,-99.99,,,0.00,,2013-02-27 00:21:00,
2013-02-26 18:31:00,42.0,40.0,29.73,WSW,243,3.0,-999.0,91,-99.99,,,0.00,,2013-02-27 00:31:00,
2013-02-26 18:42:00,42.0,40.0,29.73,WSW,243,3.0,-999.0,91,-99.99,,,0.00,,2013-02-27 00:42:00,
2013-02-26 18:52:00,42.0,40.0,29.74,SW,218,5.0,-999.0,91,-99.99,,,0.01,,2013-02-27 00:52:00,
2013-02-26 19:01:00,42.0,40.0,29.75,WSW,240,6.0,-999.0,92,-99.99,,,0.01,,2013-02-27 01:01:00,
2013-02-26 19:11:00,42.0,40.0,29.75,WSW,240,6.0,-999.0,92,-99.99,,,0.01,,2013-02-27 01:11:00,
2013-02-26 19:21:00,42.0,40.0,29.75,SW,225,3.0,-999.0,92,-99.99,,,0.01,,2013-02-27 01:21:00,
2013-02-26 19:32:00,41.0,39.0,29.75,SSW,199,2.0,-999.0,93,-99.99,,,0.01,,2013-02-27 01:32:00,
2013-02-26 19:42:00,41.0,39.0,29.75,SSW,199,2.0,-999.0,93,-99.99,,,0.01,,2013-02-27 01:42:00,
2013-02-26 19:52:00,41.0,39.0,29.76,SW,223,2.0,-999.0,93,-99.99,,,0.01,,2013-02-27 01:52:00,
2013-02-26 20:01:00,42.0,39.0,29.77,SSW,212,5.0,-999.0,88,-99.99,,,0.01,,2013-02-27 02:01:00,
2013-02-26 20:14:00,42.0,39.0,29.77,SSW,212,5.0,-999.0,88,-99.99,,,0.01,,2013-02-27 02:14:00,
2013-02-26 20:23:00,42.0,38.0,29.77,SSW,208,5.0,-999.0,85,-99.99,,,0.01,,2013-02-27 02:23:00,
2013-02-26 20:32:00,42.0,38.0,29.78,NW,305,4.0,-999.0,85,-99.99,,,0.01,,2013-02-27 02:32:00,
2013-02-26 20:42:00,42.0,38.0,29.78,NW,305,4.0,-999.0,85,-99.99,,,0.01,,2013-02-27 02:42:00,
2013-02-26 20:52:00,42.0,38.0,29.79,SSW,210,4.0,-999.0,85,-99.99,,,0.01,,2013-02-27 02:52:00,
2013-02-26 21:01:00,42.0,38.0,29.80,SW,223,5.0,-999.0,84,-99.99,,,0.01,,2013-02-27 03:01:00,
2013-02-26 21:11:00,42.0,38.0,29.80,SW,223,5.0,-999.0,84,-99.99,,,0.01,,2013-02-27 03:11:00,
2013-02-26 21:22:00,42.0,37.0,29.80,West,265,6.0,-999.0,82,-99.99,,,0.01,,2013-02-27 03:22:00,
2013-02-26 21:32:00,42.0,38.0,29.80,WSW,243,4.0,-999.0,84,-99.99,,,0.01,,2013-02-27 03:32:00,
2013-02-26 21:42:00,42.0,38.0,29.80,WSW,243,4.0,-999.0,84,-99.99,,,0.01,,2013-02-27 03:42:00,
2013-02-26 21:52:00,42.0,37.0,29.81,WSW,239,7.0,-999.0,81,-99.99,,,0.01,,2013-02-27 03:52:00,
2013-02-26 22:01:00,42.0,36.0,29.81,WSW,239,7.0,-999.0,80,-99.99,,,0.01,,2013-02-27 04:01:00,
2013-02-26 22:11:00,42.0,36.0,29.81,WSW,239,7.0,-999.0,80,-99.99,,,0.01,,2013-02-27 04:11:00,
2013-02-26 22:21:00,42.0,37.0,29.82,SW,231,5.0,-999.0,81,-99.99,,,0.01,,2013-02-27 04:21:00,
2013-02-26 22:32:00,42.0,37.0,29.82,WSW,244,4.0,-999.0,82,-99.99,,,0.01,,2013-02-27 04:32:00,
2013-02-26 22:41:00,42.0,37.0,29.82,WSW,244,4.0,-999.0,82,-99.99,,,0.01,,2013-02-27 04:41:00,
2013-02-26 22:52:00,42.0,37.0,29.82,South,191,5.0,-999.0,81,-99.99,,,0.01,,2013-02-27 04:52:00,
2013-02-26 23:01:00,42.0,36.0,29.82,SW,235,6.0,-999.0,80,-99.99,,,0.01,,2013-02-27 05:01:00,
2013-02-26 23:11:00,42.0,36.0,29.82,SW,235,6.0,-999.0,80,-99.99,,,0.01,,2013-02-27 05:11:00,
2013-02-26 23:22:00,42.0,36.0,29.82,SW,216,6.0,-999.0,80,-99.99,,,0.01,,2013-02-27 05:22:00,
2013-02-26 23:32:00,42.0,36.0,29.83,SW,223,4.0,-999.0,79,-99.99,,,0.01,,2013-02-27 05:32:00,
2013-02-26 23:42:00,42.0,36.0,29.83,SW,223,4.0,-999.0,79,-99.99,,,0.01,,2013-02-27 05:42:00,
2013-02-26 23:52:00,42.0,36.0,29.83,WSW,251,4.0,-999.0,79,-99.99,,,0.01,,2013-02-27 05:52:00,